Location: Monrovia
(34.7865°N, 86.7139°W)
Time: 00:44:07
(UTC+00:00)

Cosmos 1980 - Pass Details

Date: 14 July 2020
Orbit: 839 x 847 km, 71.0° (Epoch: 12 August)

Event Time Altitude Azimuth Distance (km) Brightness Sun altitude
Rises 02:39:57 0° 210° (SSW) 3,376 6.7 -17.4°
Reaches altitude 10° 02:42:25 10° 213° (SSW) 2,445 6.0 -17.7°
Maximum altitude 02:47:57 60° 293° (WNW) 958 4.2 -18.6°
Drops below altitude 10° 02:53:31 10° 13° (NNE) 2,460 6.5 -19.4°
Sets 02:56:01 0° 17° (NNE) 3,398 7.2 -19.7°
